| time (UTC) | temp F | wind direction | speed MPH | gust MPH | rain 1hr in | rain 24hr in | rain mn in | humidity % | barometer mb |
| 20260506090537 | 38 | 135 | 2.0 | 4.0 | 0.00 | 0.00 | 0.00 | 60 | 1014.8 |
| 20260506085557 | 38 | 135 | 2.0 | 4.0 | 0.00 | 0.00 | 0.00 | 61 | 1014.9 |
| 20260506084518 | 38 | 135 | 2.0 | 4.0 | 0.00 | 0.00 | 0.00 | 61 | 1014.7 |
| 20260506083537 | 38 | 135 | 2.0 | 5.0 | 0.00 | 0.00 | 0.00 | 61 | 1014.5 |
| 20260506082517 | 37 | 135 | 1.0 | 4.0 | 0.00 | 0.00 | 0.00 | 62 | 1014.7 |
| 20260506081517 | 37 | 135 | 1.0 | 4.0 | 0.00 | 0.00 | 0.00 | 62 | 1014.7 |
| 20260506080537 | 37 | 0.0 | 0.0 | 0.00 | 0.00 | 0.00 | 63 | 1014.3 | |
| 20260506073517 | 37 | 0.0 | 0.0 | 0.00 | 0.00 | 0.00 | 62 | 1014.7 | |
| 20260506072517 | 37 | 0.0 | 0.0 | 0.00 | 0.00 | 0.00 | 61 | 1014.5 | |
| 20260506071517 | 37 | 0.0 | 0.0 | 0.00 | 0.00 | 0.00 | 61 | 1014.4 | |
| 20260506070517 | 37 | 0.0 | 0.0 | 0.00 | 0.00 | 0.00 | 61 | 1014.3 | |
| 20260506062517 | 38 | 0.0 | 0.0 | 0.00 | 0.00 | 0.00 | 58 | 1014.0 | |
| 20260506061517 | 38 | 0.0 | 0.0 | 0.00 | 0.00 | 0.00 | 58 | 1014.2 | |
| 20260506060517 | 38 | 0.0 | 0.0 | 0.00 | 0.00 | 0.00 | 58 | 1014.2 | |
| 20260506050537 | 40 | 158 | 2.0 | 3.0 | 0.00 | 0.00 | 0.00 | 54 | 1014.1 |
| 20260506044517 | 41 | 0 | 1.0 | 2.0 | 0.00 | 0.00 | 0.00 | 53 | 1013.9 |
| 20260506043517 | 41 | 0 | 1.0 | 2.0 | 0.00 | 0.00 | 0.00 | 52 | 1014.0 |
| 20260506042517 | 42 | 0 | 1.0 | 2.0 | 0.00 | 0.00 | 0.00 | 52 | 1013.9 |
| 20260506041517 | 42 | 0 | 1.0 | 4.0 | 0.00 | 0.00 | 0.00 | 52 | 1013.8 |
| 20260506040517 | 43 | 158 | 2.0 | 6.0 | 0.00 | 0.00 | 0.00 | 51 | 1013.8 |
| 20260506035537 | 43 | 158 | 1.0 | 3.0 | 0.00 | 0.00 | 0.00 | 50 | 1013.8 |
| 20260506034517 | 44 | 158 | 2.0 | 6.0 | 0.00 | 0.00 | 0.00 | 49 | 1013.6 |
| 20260506033517 | 44 | 135 | 2.0 | 4.0 | 0.00 | 0.00 | 0.00 | 48 | 1013.6 |
| 20260506032517 | 44 | 158 | 3.0 | 8.0 | 0.00 | 0.00 | 0.00 | 48 | 1013.6 |
| 20260506031517 | 45 | 158 | 3.0 | 7.0 | 0.00 | 0.00 | 0.00 | 47 | 1013.4 |
| 20260506030517 | 45 | 158 | 2.0 | 8.0 | 0.00 | 0.00 | 0.00 | 46 | 1013.4 |
| 20260506025517 | 46 | 158 | 2.0 | 7.0 | 0.00 | 0.00 | 0.00 | 45 | 1013.3 |
| 20260506024517 | 46 | 158 | 6.0 | 14.0 | 0.00 | 0.00 | 0.00 | 44 | 1013.2 |
| 20260506023517 | 47 | 158 | 4.0 | 10.0 | 0.00 | 0.00 | 0.00 | 44 | 1013.2 |
| 20260506022517 | 47 | 158 | 3.0 | 9.0 | 0.00 | 0.00 | 0.00 | 44 | 1012.9 |
| 20260506021517 | 48 | 135 | 4.0 | 9.0 | 0.00 | 0.00 | 0.00 | 43 | 1012.6 |
| 20260506020517 | 48 | 158 | 4.0 | 10.0 | 0.00 | 0.00 | 0.00 | 43 | 1012.5 |
| 20260506015557 | 48 | 135 | 3.0 | 8.0 | 0.00 | 0.00 | 0.00 | 43 | 1012.4 |
| 20260506014517 | 48 | 135 | 5.0 | 11.0 | 0.00 | 0.00 | 0.00 | 42 | 1012.3 |
| 20260506013517 | 49 | 135 | 5.0 | 9.0 | 0.00 | 0.00 | 0.00 | 41 | 1012.1 |
| 20260506012537 | 49 | 135 | 5.0 | 10.0 | 0.00 | 0.00 | 0.00 | 40 | 1012.0 |
| 20260506011517 | 49 | 158 | 4.0 | 11.0 | 0.00 | 0.00 | 0.00 | 40 | 1011.7 |
| 20260506010516 | 50 | 158 | 6.0 | 12.0 | 0.00 | 0.00 | 0.00 | 39 | 1011.8 |
| 20260506005517 | 50 | 135 | 5.0 | 12.0 | 0.00 | 0.00 | 0.00 | 39 | 1011.5 |
| 20260506004517 | 50 | 135 | 7.0 | 15.0 | 0.00 | 0.00 | 0.00 | 37 | 1011.3 |
| 20260506003517 | 50 | 135 | 4.0 | 10.0 | 0.00 | 0.00 | 0.00 | 37 | 1011.2 |
| 20260506002516 | 51 | 158 | 6.0 | 13.0 | 0.00 | 0.00 | 0.00 | 37 | 1011.1 |
| 20260506001516 | 51 | 135 | 7.0 | 11.0 | 0.00 | 0.00 | 0.00 | 36 | 1011.0 |
| 20260506000518 | 51 | 135 | 5.0 | 13.0 | 0.00 | 0.00 | 0.00 | 35 | 1011.0 |
| 20260505235517 | 51 | 135 | 5.0 | 10.0 | 0.00 | 0.00 | 0.00 | 36 | 1010.8 |
| 20260505234517 | 52 | 135 | 6.0 | 11.0 | 0.00 | 0.00 | 0.00 | 35 | 1010.8 |
| 20260505233517 | 52 | 135 | 7.0 | 16.0 | 0.00 | 0.00 | 0.00 | 34 | 1010.7 |
| 20260505232516 | 52 | 135 | 7.0 | 16.0 | 0.00 | 0.00 | 0.00 | 34 | 1010.7 |
| 20260505231517 | 53 | 135 | 7.0 | 13.0 | 0.00 | 0.00 | 0.00 | 34 | 1010.7 |
| 20260505230516 | 53 | 135 | 6.0 | 11.0 | 0.00 | 0.00 | 0.00 | 35 | 1010.5 |
| 20260505225517 | 53 | 135 | 6.0 | 14.0 | 0.00 | 0.00 | 0.00 | 35 | 1010.4 |
| 20260505224516 | 53 | 135 | 8.0 | 18.0 | 0.00 | 0.00 | 0.00 | 34 | 1010.5 |
| 20260505223517 | 53 | 135 | 6.0 | 12.0 | 0.00 | 0.00 | 0.00 | 34 | 1010.5 |
| 20260505222516 | 54 | 135 | 7.0 | 11.0 | 0.00 | 0.00 | 0.00 | 34 | 1010.5 |
| 20260505221517 | 55 | 135 | 6.0 | 12.0 | 0.00 | 0.00 | 0.00 | 33 | 1010.5 |
| 20260505220516 | 55 | 135 | 6.0 | 12.0 | 0.00 | 0.00 | 0.00 | 33 | 1010.5 |
| 20260505215516 | 55 | 135 | 6.0 | 12.0 | 0.00 | 0.00 | 0.00 | 34 | 1010.6 |
| 20260505214516 | 55 | 135 | 8.0 | 15.0 | 0.00 | 0.00 | 0.00 | 32 | 1010.6 |
| 20260505213516 | 55 | 135 | 8.0 | 14.0 | 0.00 | 0.00 | 0.00 | 33 | 1010.7 |
| 20260505212517 | 54 | 135 | 6.0 | 11.0 | 0.00 | 0.00 | 0.00 | 33 | 1010.5 |
| 20260505211516 | 55 | 135 | 6.0 | 13.0 | 0.00 | 0.00 | 0.00 | 32 | 1010.7 |
| 20260505210516 | 55 | 135 | 5.0 | 9.0 | 0.00 | 0.00 | 0.00 | 32 | 1010.6 |
| 20260505205516 | 55 | 135 | 7.0 | 11.0 | 0.00 | 0.00 | 0.00 | 33 | 1010.7 |
| 20260505204516 | 55 | 135 | 7.0 | 12.0 | 0.00 | 0.00 | 0.00 | 32 | 1010.8 |
| 20260505203516 | 55 | 135 | 7.0 | 15.0 | 0.00 | 0.00 | 0.00 | 33 | 1010.9 |
| 20260505202536 | 56 | 135 | 7.0 | 12.0 | 0.00 | 0.00 | 0.00 | 33 | 1011.0 |
| 20260505201516 | 56 | 135 | 7.0 | 14.0 | 0.00 | 0.00 | 0.00 | 32 | 1011.0 |
| 20260505200516 | 54 | 135 | 5.0 | 12.0 | 0.00 | 0.00 | 0.00 | 34 | 1011.0 |
| 20260505195537 | 54 | 135 | 6.0 | 10.0 | 0.00 | 0.00 | 0.00 | 34 | 1011.2 |
| 20260505194516 | 54 | 135 | 5.0 | 12.0 | 0.00 | 0.00 | 0.00 | 33 | 1011.3 |
| 20260505193516 | 55 | 135 | 7.0 | 14.0 | 0.00 | 0.00 | 0.00 | 32 | 1011.3 |
| 20260505192537 | 53 | 135 | 3.0 | 8.0 | 0.00 | 0.00 | 0.00 | 37 | 1011.2 |
| 20260505191516 | 53 | 135 | 8.0 | 14.0 | 0.00 | 0.00 | 0.00 | 36 | 1011.3 |
| 20260505190516 | 53 | 135 | 3.0 | 8.0 | 0.00 | 0.00 | 0.00 | 37 | 1011.3 |
| 20260505185516 | 53 | 135 | 7.0 | 12.0 | 0.00 | 0.00 | 0.00 | 35 | 1011.4 |
| 20260505184516 | 54 | 135 | 7.0 | 11.0 | 0.00 | 0.00 | 0.00 | 36 | 1011.3 |
| 20260505183516 | 54 | 135 | 5.0 | 9.0 | 0.00 | 0.00 | 0.00 | 37 | 1011.4 |
| 20260505182517 | 53 | 135 | 5.0 | 9.0 | 0.00 | 0.00 | 0.00 | 37 | 1011.3 |
| 20260505181517 | 53 | 0 | 6.0 | 11.0 | 0.00 | 0.00 | 0.00 | 35 | 1011.3 |
| 20260505180537 | 52 | 135 | 5.0 | 10.0 | 0.00 | 0.00 | 0.00 | 39 | 1011.2 |
| 20260505175517 | 53 | 135 | 8.0 | 15.0 | 0.00 | 0.00 | 0.00 | 37 | 1011.3 |
| 20260505174516 | 53 | 135 | 7.0 | 11.0 | 0.00 | 0.00 | 0.00 | 38 | 1011.3 |
| 20260505173517 | 53 | 135 | 7.0 | 12.0 | 0.00 | 0.00 | 0.00 | 36 | 1011.3 |
| 20260505172516 | 55 | 135 | 7.0 | 12.0 | 0.00 | 0.00 | 0.00 | 35 | 1011.3 |
| 20260505171516 | 54 | 135 | 6.0 | 13.0 | 0.00 | 0.00 | 0.00 | 37 | 1011.1 |
| 20260505170516 | 54 | 135 | 6.0 | 10.0 | 0.00 | 0.00 | 0.00 | 35 | 1011.1 |
| 20260505165516 | 54 | 135 | 7.0 | 11.0 | 0.00 | 0.00 | 0.00 | 39 | 1011.1 |
| 20260505164516 | 51 | 135 | 6.0 | 12.0 | 0.00 | 0.00 | 0.00 | 40 | 1011.1 |
| 20260505163516 | 51 | 135 | 6.0 | 16.0 | 0.00 | 0.00 | 0.00 | 39 | 1011.2 |
| 20260505162516 | 52 | 135 | 6.0 | 12.0 | 0.00 | 0.00 | 0.00 | 38 | 1011.1 |
| 20260505161517 | 53 | 135 | 5.0 | 10.0 | 0.00 | 0.00 | 0.00 | 41 | 1011.2 |
| 20260505160516 | 51 | 135 | 6.0 | 13.0 | 0.00 | 0.00 | 0.00 | 43 | 1011.2 |
| 20260505152536 | 50 | 135 | 4.0 | 9.0 | 0.00 | 0.00 | 0.00 | 51 | 1011.2 |
| 20260505151516 | 48 | 135 | 3.0 | 9.0 | 0.00 | 0.00 | 0.00 | 52 | 1011.2 |
| 20260505150516 | 48 | 158 | 3.0 | 11.0 | 0.00 | 0.00 | 0.00 | 50 | 1011.1 |
| 20260505140517 | 46 | 135 | 2.0 | 7.0 | 0.00 | 0.00 | 0.00 | 54 | 1010.6 |
| 20260505124516 | 41 | 135 | 1.0 | 3.0 | 0.00 | 0.00 | 0.00 | 66 | 1010.0 |
| 20260505123515 | 40 | 135 | 1.0 | 3.0 | 0.00 | 0.00 | 0.00 | 69 | 1009.8 |
| 20260505122516 | 39 | 135 | 2.0 | 3.0 | 0.00 | 0.00 | 0.00 | 70 | 1009.8 |
| 20260505121516 | 38 | 135 | 2.0 | 3.0 | 0.00 | 0.00 | 0.00 | 72 | 1009.5 |
| 20260505120516 | 37 | 135 | 1.0 | 3.0 | 0.00 | 0.00 | 0.00 | 73 | 1009.4 |
| 20260505115516 | 36 | 135 | 1.0 | 2.0 | 0.00 | 0.00 | 0.00 | 73 | 1009.2 |
| 20260505114515 | 36 | 0.0 | 2.0 | 0.00 | 0.00 | 0.00 | 73 | 1008.9 | |
| 20260505113516 | 36 | 0.0 | 1.0 | 0.00 | 0.00 | 0.00 | 72 | 1008.6 | |
| 20260505112516 | 36 | 0.0 | 0.0 | 0.00 | 0.00 | 0.00 | 71 | 1008.6 | |
| 20260505111516 | 36 | 0.0 | 0.0 | 0.00 | 0.00 | 0.00 | 71 | 1008.6 | |
| 20260505110516 | 36 | 0.0 | 2.0 | 0.00 | 0.00 | 0.00 | 71 | 1008.4 | |
| 20260505101516 | 37 | 135 | 1.0 | 2.0 | 0.00 | 0.00 | 0.00 | 70 | 1008.1 |
| 20260505100516 | 37 | 135 | 1.0 | 2.0 | 0.00 | 0.00 | 0.00 | 70 | 1008.3 |
| 20260505095515 | 37 | 135 | 1.0 | 3.0 | 0.00 | 0.00 | 0.00 | 69 | 1008.4 |
| 20260505094515 | 37 | 0.0 | 0.0 | 0.00 | 0.00 | 0.00 | 69 | 1008.4 | |
| 20260505093515 | 37 | 0.0 | 0.0 | 0.00 | 0.00 | 0.00 | 68 | 1008.3 | |
| 20260505092516 | 37 | 0.0 | 2.0 | 0.00 | 0.00 | 0.00 | 68 | 1008.0 | |
| 20260505091516 | 38 | 0.0 | 0.0 | 0.00 | 0.00 | 0.00 | 68 | 1007.9 |